"read_dt","SO2 (ppb)","flags","PMT voltage (V)","lamp voltage (V)","lamp intensity (Hz)","internal temp (C)","react chamber temp (C)","sample flow (l/min)","pres (mmHg)","SO2 bkg (ppb)","SO2 coefficient"
2016-11-04 00:00:00,1666E-3,5C000000,-0724,0829,12311,026.6,045.4,0.456,742.7,01.18,0.508
2016-11-04 00:01:00,1739E-3,5C000000,-0724,0830,12129,026.6,045.4,0.456,742.7,01.18,0.508
2016-11-04 00:02:00,1744E-3,5C000000,-0724,0830,12321,026.6,045.4,0.456,742.7,01.18,0.508
2016-11-04 00:03:00,1539E-3,5C000000,-0724,0830,12309,026.6,045.4,0.456,742.7,01.18,0.508
2016-11-04 00:04:00,1546E-3,5C000000,-0724,0831,12207,026.6,045.4,0.455,742.7,01.18,0.508
2016-11-04 00:05:00,1603E-3,5C000000,-0724,0830,12136,026.6,045.4,0.456,742.7,01.18,0.508
2016-11-04 00:06:00,1576E-3,5C000000,-0724,0829,12318,026.6,045.4,0.456,742.7,01.18,0.508
2016-11-04 00:07:00,1665E-3,5C000000,-0724,0830,12215,026.6,045.4,0.455,742.7,01.18,0.508
2016-11-04 00:08:00,1621E-3,5C000000,-0724,0830,12234,026.6,045.4,0.456,742.7,01.18,0.508
2016-11-04 00:09:00,1537E-3,5C000000,-0724,0829,12229,026.6,045.4,0.455,742.7,01.18,0.508
2016-11-04 00:10:00,1635E-3,5C000000,-0724,0830,12271,026.6,045.4,0.456,742.7,01.18,0.508
2016-11-04 00:11:00,1681E-3,5C000000,-0724,0830,12140,026.6,045.4,0.456,742.7,01.18,0.508
2016-11-04 00:12:00,1658E-3,5C000000,-0724,0830,12244,026.6,045.4,0.455,742.7,01.18,0.508
2016-11-04 00:13:00,1605E-3,5C000000,-0724,0830,12214,026.6,045.4,0.456,742.7,01.18,0.508
2016-11-04 00:14:00,1611E-3,5C000000,-0724,0830,12192,026.6,045.4,0.455,742.7,01.18,0.508
2016-11-04 00:15:00,1493E-3,5C000000,-0724,0830,12076,026.6,045.4,0.456,742.7,01.18,0.508
2016-11-04 00:16:00,1559E-3,5C000000,-0724,0830,12080,026.6,045.4,0.456,742.7,01.18,0.508
2016-11-04 00:17:00,1500E-3,5C000000,-0724,0831,12190,026.7,045.4,0.455,742.7,01.18,0.508
2016-11-04 00:18:00,1561E-3,5C000000,-0724,0829,12220,026.6,045.4,0.456,742.7,01.18,0.508
2016-11-04 00:19:00,1609E-3,5C000000,-0724,0829,12076,026.6,045.4,0.455,742.7,01.18,0.508
2016-11-04 00:20:00,1681E-3,5C000000,-0724,0830,12129,026.6,045.4,0.455,742.7,01.18,0.508
2016-11-04 00:21:00,1618E-3,5C000000,-0724,0831,12303,026.6,045.4,0.456,742.7,01.18,0.508
2016-11-04 00:22:00,1697E-3,5C000000,-0724,0830,12170,026.7,045.4,0.455,742.7,01.18,0.508
2016-11-04 00:23:00,1679E-3,5C000000,-0724,0830,12220,026.7,045.4,0.456,742.7,01.18,0.508
2016-11-04 00:24:00,1621E-3,5C000000,-0724,0830,12174,026.7,045.4,0.456,742.7,01.18,0.508
2016-11-04 00:25:00,1646E-3,5C000000,-0724,0831,12254,026.6,045.4,0.455,742.7,01.18,0.508
2016-11-04 00:26:00,1595E-3,5C000000,-0724,0831,12128,026.7,045.4,0.456,742.7,01.18,0.508
2016-11-04 00:27:00,1590E-3,5C000000,-0724,0830,12418,026.7,045.4,0.455,742.7,01.18,0.508
2016-11-04 00:28:00,1624E-3,5C000000,-0724,0831,12114,026.7,045.4,0.455,742.7,01.18,0.508
2016-11-04 00:29:00,1611E-3,5C000000,-0724,0831,12176,026.7,045.4,0.456,742.7,01.18,0.508
2016-11-04 00:30:00,1592E-3,5C000000,-0724,0833,12239,026.7,045.4,0.455,742.7,01.18,0.508
2016-11-04 00:31:00,1596E-3,5C000000,-0724,0830,11958,026.7,045.4,0.456,742.7,01.18,0.508
2016-11-04 00:32:00,1688E-3,5C000000,-0724,0830,12184,026.7,045.4,0.455,742.7,01.18,0.508
2016-11-04 00:33:00,1592E-3,5C000000,-0724,0830,12252,026.7,045.4,0.456,742.7,01.18,0.508
2016-11-04 00:34:00,1592E-3,5C000000,-0724,0831,12254,026.7,045.4,0.456,742.7,01.18,0.508
2016-11-04 00:35:00,1577E-3,5C000000,-0724,0830,12109,026.7,045.4,0.455,742.7,01.18,0.508
2016-11-04 00:36:00,1475E-3,5C000000,-0724,0830,12097,026.7,045.4,0.456,742.7,01.18,0.508
2016-11-04 00:37:00,1619E-3,5C000000,-0724,0830,12282,026.7,045.4,0.455,742.7,01.18,0.508
2016-11-04 00:38:00,1487E-3,5C000000,-0724,0830,12286,026.7,045.4,0.455,742.6,01.18,0.508
2016-11-04 00:39:00,1663E-3,5C000000,-0724,0830,12289,026.7,045.4,0.456,742.6,01.18,0.508
2016-11-04 00:40:00,1553E-3,5C000000,-0724,0832,10859,026.7,045.4,0.455,742.6,01.18,0.508
2016-11-04 00:41:00,1593E-3,5C000000,-0724,0832,12170,026.7,045.4,0.456,742.6,01.18,0.508
2016-11-04 00:42:00,1507E-3,5C000000,-0724,0830,12206,026.7,045.4,0.456,742.6,01.18,0.508
2016-11-04 00:43:00,1441E-3,5C000000,-0724,0831,12200,026.7,045.4,0.455,742.6,01.18,0.508
2016-11-04 00:44:00,1538E-3,5C000000,-0724,0830,10978,026.7,045.4,0.456,742.6,01.18,0.508
2016-11-04 00:45:00,1464E-3,5C000000,-0724,0830,12313,026.7,045.4,0.456,742.6,01.18,0.508
2016-11-04 00:46:00,1479E-3,5C000000,-0724,0830,12179,026.7,045.4,0.455,742.6,01.18,0.508
2016-11-04 00:47:00,1504E-3,5C000000,-0724,0830,12116,026.7,045.4,0.456,742.6,01.18,0.508
2016-11-04 00:48:00,1666E-3,5C000000,-0724,0830,12216,026.7,045.4,0.455,742.6,01.18,0.508
2016-11-04 00:49:00,1558E-3,5C000000,-0724,0830,12347,026.7,045.4,0.455,742.6,01.18,0.508
2016-11-04 00:50:00,1519E-3,5C000000,-0724,0831,12168,026.7,045.4,0.456,742.6,01.18,0.508
2016-11-04 00:51:00,1648E-3,5C000000,-0724,0831,12329,026.7,045.4,0.455,742.6,01.18,0.508
2016-11-04 00:52:00,1497E-3,5C000000,-0724,0831,12073,026.7,045.4,0.456,742.6,01.18,0.508
2016-11-04 00:53:00,1649E-3,5C000000,-0724,0830,12285,026.7,045.4,0.456,742.6,01.18,0.508
2016-11-04 00:54:00,1620E-3,5C000000,-0724,0831,12182,026.7,045.4,0.455,742.6,01.18,0.508
2016-11-04 00:55:00,1703E-3,5C000000,-0724,0831,12204,026.7,045.4,0.456,742.6,01.18,0.508
2016-11-04 00:56:00,1671E-3,5C000000,-0724,0831,12198,026.8,045.4,0.455,742.6,01.18,0.508
2016-11-04 00:57:00,1700E-3,5C000000,-0724,0830,12226,026.8,045.4,0.455,742.6,01.18,0.508
2016-11-04 00:58:00,1595E-3,5C000000,-0724,0830,12102,026.7,045.4,0.456,742.6,01.18,0.508
2016-11-04 00:59:00,1494E-3,5C000000,-0724,0831,12161,026.7,045.4,0.455,742.6,01.18,0.508
2016-11-04 01:00:00,1522E-3,5C000000,-0724,0831,12291,026.8,045.4,0.456,742.6,01.18,0.508
2016-11-04 01:01:00,1545E-3,5C000000,-0724,0829,12192,026.8,045.4,0.455,742.6,01.18,0.508
2016-11-04 01:02:00,1476E-3,5C000000,-0724,0829,12255,026.8,045.4,0.455,742.6,01.18,0.508
2016-11-04 01:03:00,1577E-3,5C000000,-0724,0830,12232,026.8,045.4,0.456,742.6,01.18,0.508
2016-11-04 01:04:00,1518E-3,5C000000,-0724,0830,12364,026.8,045.4,0.455,742.6,01.18,0.508
2016-11-04 01:05:00,1629E-3,5C000000,-0724,0830,12164,026.8,045.4,0.455,742.6,01.18,0.508
2016-11-04 01:06:00,1683E-3,5C000000,-0724,0830,12255,026.8,045.4,0.456,742.6,01.18,0.508
2016-11-04 01:07:00,1643E-3,5C000000,-0724,0829,11966,026.8,045.4,0.455,742.6,01.18,0.508
2016-11-04 01:08:00,1571E-3,5C000000,-0724,0829,12274,026.8,045.4,0.456,742.6,01.18,0.508
2016-11-04 01:09:00,1674E-3,5C000000,-0724,0831,12221,026.8,045.4,0.455,742.6,01.18,0.508
2016-11-04 01:10:00,1649E-3,5C000000,-0724,0831,12195,026.8,045.4,0.455,742.6,01.18,0.508
2016-11-04 01:11:00,1561E-3,5C000000,-0724,0829,12170,026.8,045.4,0.456,742.5,01.18,0.508
2016-11-04 01:12:00,1656E-3,5C000000,-0724,0829,12167,026.8,045.4,0.455,742.6,01.18,0.508
2016-11-04 01:13:00,1632E-3,5C000000,-0724,0830,12074,026.8,045.4,0.456,742.5,01.18,0.508
2016-11-04 01:14:00,1708E-3,5C000000,-0724,0829,12196,026.8,045.4,0.455,742.6,01.18,0.508
2016-11-04 01:15:00,1633E-3,5C000000,-0724,0830,12174,026.8,045.4,0.455,742.6,01.18,0.508
2016-11-04 01:16:00,1643E-3,5C000000,-0724,0829,12040,026.8,045.4,0.456,742.5,01.18,0.508
2016-11-04 01:17:00,1511E-3,5C000000,-0724,0830,12235,026.8,045.4,0.455,742.5,01.18,0.508
2016-11-04 01:18:00,1665E-3,5C000000,-0724,0830,12104,026.8,045.4,0.456,742.6,01.18,0.508
2016-11-04 01:19:00,1664E-3,5C000000,-0724,0830,12178,026.8,045.4,0.455,742.6,01.18,0.508
2016-11-04 01:20:00,1636E-3,5C000000,-0724,0829,12213,026.8,045.4,0.455,742.6,01.18,0.508
2016-11-04 01:21:00,1603E-3,5C000000,-0724,0829,12159,026.8,045.4,0.456,742.5,01.18,0.508
2016-11-04 01:22:00,1599E-3,5C000000,-0724,0829,12186,026.8,045.4,0.455,742.6,01.18,0.508
2016-11-04 01:23:00,1614E-3,5C000000,-0724,0830,12263,026.8,045.4,0.456,742.6,01.18,0.508
2016-11-04 01:24:00,1620E-3,5C000000,-0724,0829,12392,026.8,045.4,0.455,742.6,01.18,0.508
2016-11-04 01:25:00,1503E-3,5C000000,-0724,0830,12228,026.8,045.4,0.455,742.6,01.18,0.508
2016-11-04 01:26:00,1495E-3,5C000000,-0724,0829,12258,026.8,045.4,0.455,742.6,01.18,0.508
2016-11-04 01:27:00,1685E-3,5C000000,-0724,0829,12076,026.8,045.4,0.455,742.6,01.18,0.508
2016-11-04 01:28:00,1579E-3,5C000000,-0724,0829,12147,026.8,045.4,0.456,742.5,01.18,0.508
2016-11-04 01:29:00,1476E-3,5C000000,-0724,0830,12096,026.8,045.4,0.455,742.6,01.18,0.508
2016-11-04 01:30:00,1726E-3,5C000000,-0724,0831,12255,026.8,045.4,0.455,742.6,01.18,0.508
2016-11-04 01:31:00,1548E-3,5C000000,-0724,0830,12159,026.9,045.4,0.455,742.6,01.18,0.508
2016-11-04 01:32:00,1511E-3,5C000000,-0724,0829,12132,026.9,045.4,0.455,742.6,01.18,0.508
2016-11-04 01:33:00,1591E-3,5C000000,-0724,0828,12129,026.9,045.4,0.456,742.6,01.18,0.508
2016-11-04 01:34:00,1664E-3,5C000000,-0724,0830,12338,026.9,045.4,0.455,742.6,01.18,0.508
2016-11-04 01:35:00,1621E-3,5C000000,-0724,0829,12143,026.9,045.4,0.455,742.6,01.18,0.508
2016-11-04 01:36:00,1596E-3,5C000000,-0724,0830,12273,026.9,045.4,0.455,742.6,01.18,0.508
2016-11-04 01:37:00,1547E-3,5C000000,-0724,0830,12361,026.9,045.4,0.455,742.6,01.18,0.508
2016-11-04 01:38:00,1713E-3,5C000000,-0724,0832,12191,026.9,045.4,0.456,742.6,01.18,0.508
2016-11-04 01:39:00,1621E-3,5C000000,-0724,0831,12227,026.9,045.4,0.455,742.6,01.18,0.508
2016-11-04 01:40:00,1614E-3,5C000000,-0724,0830,12224,026.9,045.4,0.456,742.6,01.18,0.508
2016-11-04 01:41:00,1584E-3,5C000000,-0724,0829,12247,026.9,045.4,0.455,742.6,01.18,0.508
2016-11-04 01:42:00,1463E-3,5C000000,-0724,0830,12043,026.9,045.4,0.455,742.6,01.18,0.508
2016-11-04 01:43:00,1725E-3,5C000000,-0724,0830,12205,026.9,045.4,0.455,742.6,01.18,0.508
2016-11-04 01:44:00,1607E-3,5C000000,-0724,0831,12197,026.9,045.4,0.455,742.6,01.18,0.508
2016-11-04 01:45:00,1615E-3,5C000000,-0724,0831,12329,026.9,045.4,0.456,742.6,01.18,0.508
2016-11-04 01:46:00,1650E-3,5C000000,-0724,0830,12076,026.9,045.4,0.455,742.6,01.18,0.508
2016-11-04 01:47:00,1664E-3,5C000000,-0724,0829,11929,026.9,045.4,0.455,742.6,01.18,0.508
2016-11-04 01:48:00,1616E-3,5C000000,-0724,0831,12244,026.9,045.4,0.455,742.6,01.18,0.508
2016-11-04 01:49:00,1708E-3,5C000000,-0724,0829,12046,026.9,045.4,0.455,742.6,01.18,0.508
2016-11-04 01:50:00,1599E-3,5C000000,-0724,0830,12114,026.9,045.4,0.455,742.6,01.18,0.508
2016-11-04 01:51:00,1728E-3,5C000000,-0724,0829,12147,026.9,045.4,0.455,742.5,01.18,0.508
2016-11-04 01:52:00,1674E-3,5C000000,-0724,0829,12246,026.9,045.4,0.456,742.5,01.18,0.508
2016-11-04 01:53:00,1545E-3,5C000000,-0724,0830,12290,026.9,045.4,0.455,742.5,01.18,0.508
2016-11-04 01:54:00,1600E-3,5C000000,-0724,0830,12185,026.9,045.4,0.455,742.5,01.18,0.508
2016-11-04 01:55:00,1751E-3,5C000000,-0724,0830,12193,026.9,045.4,0.455,742.5,01.18,0.508
2016-11-04 01:56:00,1488E-3,5C000000,-0724,0830,12207,026.9,045.4,0.455,742.5,01.18,0.508
2016-11-04 01:57:00,1746E-3,5C000000,-0724,0830,12166,026.9,045.4,0.456,742.5,01.18,0.508
2016-11-04 01:58:00,1659E-3,5C000000,-0724,0829,12203,026.9,045.4,0.455,742.5,01.18,0.508
2016-11-04 01:59:00,1581E-3,5C000000,-0724,0830,12148,026.9,045.4,0.456,742.5,01.18,0.508
2016-11-04 02:00:00,1532E-3,5C000000,-0724,0829,12136,026.9,045.4,0.455,742.5,01.18,0.508
2016-11-04 02:01:00,1713E-3,5C000000,-0724,0830,12162,026.9,045.4,0.455,742.6,01.18,0.508
2016-11-04 02:02:00,1626E-3,5C000000,-0724,0831,12062,026.9,045.4,0.455,742.5,01.18,0.508
2016-11-04 02:03:00,1521E-3,5C000000,-0724,0829,12177,027.0,045.4,0.455,742.5,01.18,0.508
2016-11-04 02:04:00,1504E-3,5C000000,-0724,0831,12185,027.0,045.4,0.455,742.5,01.18,0.508
2016-11-04 02:05:00,1587E-3,5C000000,-0724,0830,12194,027.0,045.4,0.455,742.5,01.18,0.508
2016-11-04 02:06:00,1550E-3,5C000000,-0724,0830,12234,027.0,045.4,0.455,742.5,01.18,0.508
2016-11-04 02:07:00,1576E-3,5C000000,-0724,0830,12354,027.0,045.4,0.455,742.5,01.18,0.508
2016-11-04 02:08:00,1593E-3,5C000000,-0724,0830,12396,027.0,045.4,0.455,742.5,01.18,0.508
2016-11-04 02:09:00,1558E-3,5C000000,-0724,0829,12238,027.0,045.4,0.455,742.5,01.18,0.508
2016-11-04 02:10:00,1639E-3,5C000000,-0724,0829,12137,027.0,045.4,0.455,742.5,01.18,0.508
2016-11-04 02:11:00,1668E-3,5C000000,-0724,0829,12052,027.0,045.4,0.455,742.5,01.18,0.508
2016-11-04 02:12:00,1555E-3,5C000000,-0724,0834,11391,027.0,045.4,0.455,742.5,01.18,0.508
2016-11-04 02:13:00,1591E-3,5C000000,-0724,0829,12214,027.0,045.4,0.455,742.5,01.18,0.508
2016-11-04 02:14:00,1608E-3,5C000000,-0724,0830,12176,027.0,045.4,0.455,742.5,01.18,0.508
2016-11-04 02:15:00,1633E-3,5C000000,-0724,0832,12203,027.0,045.4,0.455,742.5,01.18,0.508
2016-11-04 02:16:00,1657E-3,5C000000,-0724,0830,12112,027.0,045.4,0.455,742.5,01.18,0.508
2016-11-04 02:17:00,1630E-3,5C000000,-0724,0831,12288,027.0,045.4,0.455,742.4,01.18,0.508
2016-11-04 02:18:00,1648E-3,5C000000,-0724,0831,12283,027.0,045.4,0.455,742.5,01.18,0.508
2016-11-04 02:19:00,1618E-3,5C000000,-0724,0830,11035,027.0,045.4,0.455,742.5,01.18,0.508
2016-11-04 02:20:00,1563E-3,5C000000,-0724,0830,12076,027.0,045.4,0.455,742.5,01.18,0.508
2016-11-04 02:21:00,1637E-3,5C000000,-0724,0830,12186,027.0,045.4,0.455,742.5,01.18,0.508
2016-11-04 02:22:00,1540E-3,5C000000,-0724,0830,12318,027.0,045.4,0.455,742.5,01.18,0.508
2016-11-04 02:23:00,1598E-3,5C000000,-0724,0830,12043,027.0,045.4,0.455,742.5,01.18,0.508
2016-11-04 02:24:00,1567E-3,5C000000,-0724,0829,12116,027.0,045.4,0.455,742.5,01.18,0.508
2016-11-04 02:25:00,1571E-3,5C000000,-0724,0829,12180,027.0,045.4,0.455,742.5,01.18,0.508
2016-11-04 02:26:00,1566E-3,5C000000,-0724,0830,11992,027.0,045.4,0.455,742.5,01.18,0.508
2016-11-04 02:27:00,1610E-3,5C000000,-0724,0830,12235,027.0,045.4,0.455,742.5,01.18,0.508
2016-11-04 02:28:00,1545E-3,5C000000,-0724,0831,12180,027.0,045.4,0.455,742.5,01.18,0.508
2016-11-04 02:29:00,1700E-3,5C000000,-0724,0830,12119,027.0,045.4,0.455,742.5,01.18,0.508
2016-11-04 02:30:00,1549E-3,5C000000,-0724,0830,12262,027.0,045.4,0.455,742.5,01.18,0.508
2016-11-04 02:31:00,1674E-3,5C000000,-0724,0831,12189,027.1,045.4,0.455,742.4,01.18,0.508
2016-11-04 02:32:00,1593E-3,5C000000,-0724,0831,12115,027.1,045.4,0.455,742.5,01.18,0.508
2016-11-04 02:33:00,1641E-3,5C000000,-0724,0831,12259,027.1,045.4,0.455,742.5,01.18,0.508
2016-11-04 02:34:00,1514E-3,5C000000,-0724,0830,12217,027.1,045.4,0.455,742.4,01.18,0.508
2016-11-04 02:35:00,1628E-3,5C000000,-0724,0830,12213,027.1,045.4,0.455,742.4,01.18,0.508
2016-11-04 02:36:00,1526E-3,5C000000,-0724,0831,12186,027.1,045.4,0.455,742.4,01.18,0.508
2016-11-04 02:37:00,1587E-3,5C000000,-0724,0830,12192,027.1,045.4,0.455,742.4,01.18,0.508
2016-11-04 02:38:00,1632E-3,5C000000,-0724,0832,12321,027.1,045.4,0.455,742.4,01.18,0.508
2016-11-04 02:39:00,1717E-3,5C000000,-0724,0830,12263,027.1,045.4,0.455,742.4,01.18,0.508
2016-11-04 02:40:00,1734E-3,5C000000,-0724,0830,12154,027.1,045.4,0.455,742.4,01.18,0.508
2016-11-04 02:41:00,1708E-3,5C000000,-0724,0830,12150,027.1,045.4,0.455,742.4,01.18,0.508
2016-11-04 02:42:00,1641E-3,5C000000,-0724,0831,12392,027.1,045.4,0.455,742.4,01.18,0.508
2016-11-04 02:43:00,1596E-3,5C000000,-0724,0831,12173,027.1,045.4,0.455,742.4,01.18,0.508
2016-11-04 02:44:00,1556E-3,5C000000,-0724,0830,12320,027.1,045.4,0.455,742.4,01.18,0.508
2016-11-04 02:45:00,1579E-3,5C000000,-0724,0831,12223,027.1,045.4,0.455,742.4,01.18,0.508
2016-11-04 02:46:00,1623E-3,5C000000,-0724,0831,12169,027.1,045.4,0.455,742.4,01.18,0.508
2016-11-04 02:47:00,1634E-3,5C000000,-0724,0829,12260,027.1,045.4,0.455,742.4,01.18,0.508
2016-11-04 02:48:00,1644E-3,5C000000,-0724,0831,12234,027.1,045.4,0.455,742.4,01.18,0.508
2016-11-04 02:49:00,1578E-3,5C000000,-0724,0832,12312,027.1,045.4,0.455,742.4,01.18,0.508
2016-11-04 02:50:00,1476E-3,5C000000,-0724,0830,12104,027.1,045.4,0.455,742.4,01.18,0.508
2016-11-04 02:51:00,1559E-3,5C000000,-0724,0831,12278,027.1,045.4,0.455,742.4,01.18,0.508
2016-11-04 02:52:00,1558E-3,5C000000,-0724,0831,12154,027.1,045.4,0.455,742.4,01.18,0.508
2016-11-04 02:53:00,1538E-3,5C000000,-0724,0830,12202,027.1,045.4,0.455,742.3,01.18,0.508
2016-11-04 02:54:00,1645E-3,5C000000,-0724,0831,12076,027.1,045.4,0.455,742.3,01.18,0.508
2016-11-04 02:55:00,1530E-3,5C000000,-0724,0832,12234,027.1,045.4,0.455,742.4,01.18,0.508
2016-11-04 02:56:00,1610E-3,5C000000,-0724,0831,12176,027.1,045.4,0.455,742.4,01.18,0.508
2016-11-04 02:57:00,1617E-3,5C000000,-0724,0831,12108,027.1,045.4,0.455,742.4,01.18,0.508
2016-11-04 02:58:00,1576E-3,5C000000,-0724,0831,12169,027.2,045.4,0.454,742.4,01.18,0.508
2016-11-04 02:59:00,1500E-3,5C000000,-0724,0830,12224,027.2,045.4,0.455,742.3,01.18,0.508
2016-11-04 03:00:00,1620E-3,5C000000,-0724,0830,12211,027.2,045.4,0.454,742.3,01.18,0.508
2016-11-04 03:01:00,1538E-3,5C000000,-0724,0830,12237,027.2,045.4,0.455,742.3,01.18,0.508
2016-11-04 03:02:00,1600E-3,5C000000,-0724,0830,12067,027.2,045.4,0.455,742.3,01.18,0.508
2016-11-04 03:03:00,1582E-3,5C000000,-0724,0830,12311,027.2,045.4,0.455,742.3,01.18,0.508
2016-11-04 03:04:00,1560E-3,5C000000,-0724,0830,12217,027.2,045.4,0.455,742.3,01.18,0.508
2016-11-04 03:05:00,1634E-3,5C000000,-0724,0831,12239,027.2,045.4,0.454,742.3,01.18,0.508
2016-11-04 03:06:00,1605E-3,5C000000,-0724,0830,12171,027.2,045.4,0.455,742.3,01.18,0.508
2016-11-04 03:07:00,1650E-3,5C000000,-0724,0831,12223,027.2,045.4,0.454,742.3,01.18,0.508
2016-11-04 03:08:00,1651E-3,5C000000,-0724,0830,11970,027.2,045.4,0.455,742.3,01.18,0.508
2016-11-04 03:09:00,1678E-3,5C000000,-0724,0829,12287,027.2,045.4,0.455,742.3,01.18,0.508
2016-11-04 03:10:00,1572E-3,5C000000,-0724,0830,12247,027.2,045.4,0.454,742.3,01.18,0.508
2016-11-04 03:11:00,1598E-3,5C000000,-0724,0830,12249,027.2,045.4,0.455,742.3,01.18,0.508
2016-11-04 03:12:00,1483E-3,5C000000,-0724,0831,12123,027.2,045.4,0.454,742.3,01.18,0.508
2016-11-04 03:13:00,1493E-3,5C000000,-0724,0830,12286,027.2,045.4,0.455,742.3,01.18,0.508
2016-11-04 03:14:00,1537E-3,5C000000,-0724,0831,12379,027.2,045.4,0.455,742.3,01.18,0.508
2016-11-04 03:15:00,1594E-3,5C000000,-0724,0830,12120,027.2,045.4,0.455,742.3,01.18,0.508
2016-11-04 03:16:00,1680E-3,5C000000,-0724,0830,12208,027.2,045.4,0.455,742.3,01.18,0.508
2016-11-04 03:17:00,1585E-3,5C000000,-0724,0830,12104,027.2,045.4,0.454,742.3,01.18,0.508
2016-11-04 03:18:00,1679E-3,5C000000,-0724,0832,12344,027.2,045.4,0.455,742.3,01.18,0.508
2016-11-04 03:19:00,1596E-3,5C000000,-0724,0831,10931,027.2,045.4,0.454,742.3,01.18,0.508
2016-11-04 03:20:00,1691E-3,5C000000,-0724,0831,12066,027.2,045.4,0.455,742.3,01.18,0.508
2016-11-04 03:21:00,1517E-3,5C000000,-0724,0831,12157,027.3,045.4,0.455,742.3,01.18,0.508
2016-11-04 03:22:00,1604E-3,5C000000,-0724,0830,12178,027.3,045.4,0.454,742.3,01.18,0.508
2016-11-04 03:23:00,1601E-3,5C000000,-0724,0831,11979,027.2,045.4,0.455,742.3,01.18,0.508
2016-11-04 03:24:00,1562E-3,5C000000,-0724,0831,11987,027.3,045.4,0.454,742.3,01.18,0.508
2016-11-04 03:25:00,1562E-3,5C000000,-0724,0830,12224,027.3,045.4,0.455,742.3,01.18,0.508
2016-11-04 03:26:00,1605E-3,5C000000,-0724,0831,12350,027.3,045.4,0.454,742.3,01.18,0.508
2016-11-04 03:27:00,1559E-3,5C000000,-0724,0830,12282,027.3,045.4,0.455,742.3,01.18,0.508
2016-11-04 03:28:00,1534E-3,5C000000,-0724,0830,10990,027.3,045.4,0.454,742.3,01.18,0.508
2016-11-04 03:29:00,1638E-3,5C000000,-0724,0830,12223,027.3,045.4,0.455,742.3,01.18,0.508
2016-11-04 03:30:00,1605E-3,5C000000,-0724,0831,12117,027.3,045.4,0.455,742.3,01.18,0.508
2016-11-04 03:31:00,1634E-3,5C000000,-0724,0831,12173,027.3,045.4,0.454,742.3,01.18,0.508
2016-11-04 03:32:00,1680E-3,5C000000,-0724,0831,12330,027.3,045.4,0.455,742.3,01.18,0.508
2016-11-04 03:33:00,1596E-3,5C000000,-0724,0830,12244,027.3,045.4,0.454,742.3,01.18,0.508
2016-11-04 03:34:00,1553E-3,5C000000,-0724,0829,12216,027.3,045.4,0.455,742.4,01.18,0.508
2016-11-04 03:35:00,1648E-3,5C000000,-0724,0830,12209,027.3,045.4,0.454,742.4,01.18,0.508
2016-11-04 03:36:00,1658E-3,5C000000,-0724,0831,12097,027.3,045.4,0.455,742.4,01.18,0.508
2016-11-04 03:37:00,1585E-3,5C000000,-0724,0831,12143,027.3,045.4,0.454,742.4,01.18,0.508
2016-11-04 03:38:00,1473E-3,5C000000,-0724,0831,12271,027.3,045.4,0.455,742.4,01.18,0.508
2016-11-04 03:39:00,1711E-3,5C000000,-0724,0831,12188,027.3,045.4,0.454,742.4,01.18,0.508
2016-11-04 03:40:00,1715E-3,5C000000,-0724,0830,12190,027.3,045.4,0.455,742.4,01.18,0.508
2016-11-04 03:41:00,1722E-3,5C000000,-0724,0830,12104,027.3,045.4,0.455,742.4,01.18,0.508
2016-11-04 03:42:00,1700E-3,5C000000,-0724,0830,12081,027.3,045.4,0.454,742.4,01.18,0.508
2016-11-04 03:43:00,1556E-3,5C000000,-0724,0831,12275,027.3,045.4,0.455,742.3,01.18,0.508
2016-11-04 03:44:00,1642E-3,5C000000,-0724,0830,12381,027.3,045.4,0.454,742.3,01.18,0.508
2016-11-04 03:45:00,1623E-3,5C000000,-0724,0830,12227,027.3,045.4,0.455,742.3,01.18,0.508
2016-11-04 03:46:00,1491E-3,5C000000,-0724,0830,12123,027.4,045.4,0.454,742.3,01.18,0.508
2016-11-04 03:47:00,1709E-3,5C000000,-0724,0830,12354,027.3,045.4,0.455,742.3,01.18,0.508
2016-11-04 03:48:00,1659E-3,5C000000,-0724,0830,12127,027.4,045.4,0.454,742.3,01.18,0.508
2016-11-04 03:49:00,1521E-3,5C000000,-0724,0831,12198,027.4,045.4,0.455,742.3,01.18,0.508
2016-11-04 03:50:00,1516E-3,5C000000,-0724,0830,12200,027.4,045.4,0.454,742.3,01.18,0.508
2016-11-04 03:51:00,1708E-3,5C000000,-0724,0831,12156,027.4,045.4,0.455,742.3,01.18,0.508
2016-11-04 03:52:00,1601E-3,5C000000,-0724,0830,12274,027.4,045.4,0.454,742.3,01.18,0.508
2016-11-04 03:53:00,1635E-3,5C000000,-0724,0830,12148,027.4,045.4,0.454,742.3,01.18,0.508
2016-11-04 03:54:00,1618E-3,5C000000,-0724,0830,12083,027.4,045.4,0.455,742.2,01.18,0.508
2016-11-04 03:55:00,1687E-3,5C000000,-0724,0830,12051,027.4,045.5,0.454,742.2,01.18,0.508
2016-11-04 03:56:00,1635E-3,5C000000,-0724,0831,12156,027.4,045.4,0.455,742.3,01.18,0.508
2016-11-04 03:57:00,1623E-3,5C000000,-0724,0830,12058,027.4,045.4,0.454,742.3,01.18,0.508
2016-11-04 03:58:00,1481E-3,5C000000,-0724,0830,12153,027.4,045.4,0.455,742.2,01.18,0.508
2016-11-04 03:59:00,1511E-3,5C000000,-0724,0830,12139,027.4,045.4,0.454,742.2,01.18,0.508
2016-11-04 04:00:00,1609E-3,5C000000,-0724,0830,12220,027.4,045.4,0.455,742.3,01.18,0.508
2016-11-04 04:01:00,1646E-3,5C000000,-0724,0830,12081,027.4,045.4,0.454,742.3,01.18,0.508
2016-11-04 04:02:00,1547E-3,5C000000,-0724,0831,12285,027.4,045.4,0.454,742.2,01.18,0.508
2016-11-04 04:03:00,1573E-3,5C000000,-0724,0830,12117,027.4,045.4,0.454,742.3,01.18,0.508
2016-11-04 04:04:00,1601E-3,5C000000,-0724,0830,12234,027.4,045.5,0.454,742.2,01.18,0.508
2016-11-04 04:05:00,1575E-3,5C000000,-0724,0831,12184,027.4,045.4,0.455,742.2,01.18,0.508
2016-11-04 04:06:00,1628E-3,5C000000,-0724,0831,12286,027.4,045.4,0.454,742.3,01.18,0.508
2016-11-04 04:07:00,1532E-3,5C000000,-0724,0831,12169,027.5,045.4,0.455,742.3,01.18,0.508
2016-11-04 04:08:00,1478E-3,5C000000,-0724,0830,12069,027.5,045.4,0.454,742.2,01.18,0.508
2016-11-04 04:09:00,1573E-3,5C000000,-0724,0830,12264,027.4,045.4,0.455,742.3,01.18,0.508
2016-11-04 04:10:00,1592E-3,5C000000,-0724,0831,12185,027.4,045.4,0.454,742.2,01.18,0.508
2016-11-04 04:11:00,1526E-3,5C000000,-0724,0830,12180,027.5,045.4,0.454,742.3,01.18,0.508
2016-11-04 04:12:00,1599E-3,5C000000,-0724,0830,12307,027.5,045.4,0.454,742.3,01.18,0.508
2016-11-04 04:13:00,1651E-3,5C000000,-0724,0831,12240,027.5,045.4,0.454,742.3,01.18,0.508
2016-11-04 04:14:00,1582E-3,5C000000,-0724,0830,12254,027.5,045.4,0.454,742.3,01.18,0.508
2016-11-04 04:15:00,1694E-3,5C000000,-0724,0831,12280,027.5,045.4,0.454,742.3,01.18,0.508
2016-11-04 04:16:00,1661E-3,5C000000,-0724,0830,12294,027.5,045.4,0.454,742.3,01.18,0.508
2016-11-04 04:17:00,1564E-3,5C000000,-0724,0832,12029,027.5,045.4,0.454,742.3,01.18,0.508
2016-11-04 04:18:00,1585E-3,5C000000,-0724,0832,12261,027.5,045.4,0.454,742.4,01.18,0.508
2016-11-04 04:19:00,1717E-3,5C000000,-0724,0830,12215,027.5,045.4,0.454,742.3,01.18,0.508
2016-11-04 04:20:00,1555E-3,5C000000,-0724,0830,12212,027.5,045.4,0.454,742.4,01.18,0.508